SKY MUSTER (NBN1A)

Last updated on Jan. 27, 2020, 4:38 a.m. UTC

1 40940U 15054A   20026.87632347 -.00000285  00000-0  00000-0 0  9998
2 40940   0.0142  50.6941 0001546 255.7259 274.9182  1.00270206 15874
UTC
Height (km)
Latitude
Longitude
Inclination
Orbital Period
UTC large
Height (km)
Speed (km/s)
/
Latitude / Longitude
Inclination (degrees)
Orbital Period (minutes)
Azimuth
Elevation
Range (km)
Doppler Factor
iOS Compass Heading
iOS Angle

Next 30 passes for location: Hong Kong

Rise time Rise Azimuth (degrees) Set time Set Azimuth (degrees) Duration Max altitude (degrees)

No matching passes for this satellites